Погода в Бугульме

Россия / Республика Татарстан     54°32′11″N   52°47′22″E
темп.,
°C
ветер,
м/с
пор.,
м/с
влажн.,
%
обл.,
%
осадки,
мм/ч
давл.,
гПа
погр.,
м
24 июля, сб
сб2400:00+17сз2256100 0.0 100522
03:00+16зсз22599 0.0 100529
06:00+18з34553 0.0 1006225
09:00+22з563820 0.0 10061762
12:00+22зюз5642100 0.0 10061750
15:00+22зюз4645100 0.0 10071557
18:00+20сз5750100 0.0 1009651
21:00+15ссз4879100 0.2 1011331
25 июля, вс
вс2500:00+11ссз339255 0.0 101348
03:00+10ссз22900 0.0 101514
06:00+13ссз24670 0.0 1017215
09:00+18ссз45380 0.0 10181740
12:00+21ссз55270 0.0 10182140
15:00+21ссз55255 0.0 10192346
18:00+19ссз46335 0.0 1020912
21:00+12ссз22545 0.0 102211
26 июля, пн
пн2600:00+11зсз11605 0.0 102210
03:00+10з11635 0.0 102310
06:00+15зсз234798 0.0 1023186
09:00+17зсз344282 0.0 1024412
12:00+21сз5632100 0.0 10232375
15:00+21сз573332 0.0 10222188
18:00+20сз4739100 0.0 1021724
21:00+14з115681 0.0 102110
27 июля, вт
вт2700:00+15зюз2254100 0.0 102116
03:00+12з226626 0.0 102121
06:00+16з475332 0.0 1020275
09:00+22з68365 0.0 10182145
12:00+22зсз7838100 0.0 10172037
15:00+24зсз7939100 0.1 10152714
18:00+15ссз29933 2.6 1016355
21:00+13ссз34925 2.7 101785
28 июля, ср
ср2800:00+11сз22912 0.0 101714
03:00+10ссз22900 0.0 101812
06:00+12ссз24810 0.0 1018210
09:00+18с33484 0.0 10181200
12:00+21сз44320 0.0 10161773
15:00+23сз45272 0.0 10152194
18:00+21сз46342 0.0 1014512
21:00+15зсз22575 0.0 101411